Weather History for KRDG - November, 2013

Change the Weather History Date:

Friday, November 1, 2013

  Actual Average Record
Temperature  
Mean Temperature 62 °F 49 °F  
Max Temperature 73 °F 59 °F 84 °F (1950)
Min Temperature 51 °F 39 °F 22 °F (1976)
Degree Days  
Heating Degree Days 3 16  
Month to date heating degree days 3 16  
Since 1 July heating degree days 368 454  
Cooling Degree Days 0 0  
Month to date cooling degree days 0 0  
Year to date cooling degree days 1124 896  
Growing Degree Days 12 (Base 50)    
Moisture  
Dew Point 51 °F    
Average Humidity 60    
Maximum Humidity 84    
Minimum Humidity 35    
Precipitation  
Precipitation 0.26 in 0.10 in 1.60 in (1951)
Month to date precipitation 0.26 0.10  
Year to date precipitation 35.48 36.62  
Sea Level Pressure  
Sea Level Pressure 29.64 in    
Wind  
Wind Speed 10 mph (SW)    
Max Wind Speed 30 mph    
Max Gust Speed 43 mph    
Visibility 10 miles    
Events Rain    
T = Trace of Precipitation, MM = Missing Value Source: NWS Daily Summary

Daily Weather History Graph

Daily Weather History Graph

Search for Another Location

Airport or City:

Trip Planner

Search our weather history database for the weather conditions in past years. The results will help you decide how hot, cold, wet, or windy it might be!

Date:

Astronomy

Nov. 01, 2013 Rise Set
Actual Time 7:33 AM EDT 6:00 PM EDT
Civil Twilight 7:05 AM EDT 6:28 PM EDT
Nautical Twilight 6:33 AM EDT 7:00 PM EDT
Astronomical Twilight 6:01 AM EDT 7:32 PM EDT
Moon 5:23 AM EDT (11/1) 4:52 PM EDT (11/1)
Length of Visible Light 11h 23m
Length of Day
10h 26m
Waning Crescent, 4% of the Moon is Illuminated
Nov 1
Waning Crescent
Nov 3
New
Nov 10
First Quarter
Nov 17
Full
Nov 25
Last Quarter

Hourly Weather History & Observations

Time (EDT) Temp. Dew Point Humidity Pressure Visibility Wind Dir Wind Speed Gust Speed Precip Events Conditions
12:54 AM 64.9 °F 57.9 °F 78% 29.73 in 10.0 mi South 10.4 mph 19.6 mph 0.00 in   Clear
1:54 AM 66.0 °F 57.9 °F 75% 29.70 in 10.0 mi South 15.0 mph 25.3 mph 0.00 in Rain Light Rain
2:54 AM 64.9 °F 59.0 °F 81% 29.66 in 10.0 mi South 12.7 mph 19.6 mph 0.02 in   Overcast
8:54 AM 62.1 °F 57.0 °F 84% 29.62 in 10.0 mi SSW 9.2 mph - 0.16 in Rain Light Rain
9:54 AM 62.1 °F 57.0 °F 84% 29.62 in 10.0 mi SSW 6.9 mph - 0.00 in Rain Light Rain
10:54 AM 62.1 °F 57.0 °F 84% 29.62 in 10.0 mi SSW 8.1 mph - 0.02 in Rain Light Rain
11:54 AM 64.0 °F 55.9 °F 75% 29.62 in 10.0 mi SW 9.2 mph - 0.00 in   Overcast
12:54 PM 68.0 °F 55.9 °F 65% 29.62 in 10.0 mi WSW 9.2 mph 16.1 mph N/A   Mostly Cloudy
1:54 PM 69.1 °F 54.0 °F 58% 29.59 in 10.0 mi WSW 16.1 mph 23.0 mph N/A   Scattered Clouds
2:54 PM 71.1 °F 51.1 °F 49% 29.60 in 10.0 mi WSW 13.8 mph 25.3 mph N/A   Scattered Clouds
3:54 PM 72.0 °F 48.9 °F 44% 29.58 in 10.0 mi SW 11.5 mph - N/A   Clear
4:54 PM 71.1 °F 43.0 °F 36% 29.59 in 10.0 mi West 9.2 mph - N/A   Clear
5:54 PM 68.0 °F 44.1 °F 42% 29.61 in 10.0 mi SW 3.5 mph - N/A   Clear
6:54 PM 62.1 °F 44.1 °F 52% 29.64 in 10.0 mi NW 3.5 mph - N/A   Clear
7:54 PM 57.0 °F 46.9 °F 69% 29.65 in 10.0 mi Calm Calm - N/A   Clear
8:54 PM 55.9 °F 45.0 °F 67% 29.67 in 10.0 mi SSE 3.5 mph - N/A   Clear
9:54 PM 54.0 °F 46.0 °F 75% 29.69 in 10.0 mi Calm Calm - N/A   Clear
10:54 PM 51.1 °F 46.9 °F 86% 29.71 in 10.0 mi NNW 4.6 mph - N/A   Overcast
11:54 PM 54.0 °F 46.0 °F 75% 29.68 in 10.0 mi North 5.8 mph - N/A   Mostly Cloudy